This is the latest recevied weather packets stored in our database for station/object OE9GTV. If no packets are shown the sender has not sent any weather packets the latest 10 day(s).
| Time | Temp. | Humidity | Pressure | Rain* | Wind** | Luminosity | Snow |
|---|---|---|---|---|---|---|---|
| 1777635674 | 19.44° C | 44% | 1022.2 hPa | 0 mm | - | 0 W/m² | - |
| 1777635074 | 19.44° C | 46% | 1022.4 hPa | 0 mm | - | 0 W/m² | - |
| 1777634474 | 18.33° C | 46% | 1022.5 hPa | 0 mm | - | 0 W/m² | - |
| 1777633873 | 18.33° C | 47% | 1022.6 hPa | 0 mm | - | 0 W/m² | - |
| 1777633274 | 18.33° C | 49% | 1022.6 hPa | 0 mm | - | 0 W/m² | - |
| 1777632673 | 18.33° C | 48% | 1022.8 hPa | 0 mm | - | 0 W/m² | - |
| 1777632073 | 17.78° C | 49% | 1022.9 hPa | 0 mm | - | 0 W/m² | - |
| 1777631474 | 17.22° C | 50% | 1022.9 hPa | 0 mm | - | 0 W/m² | - |
| 1777630873 | 17.78° C | 50% | 1022.9 hPa | 0 mm | - | 0 W/m² | - |
| 1777630273 | 17.22° C | 52% | 1023 hPa | 0 mm | - | 0 W/m² | - |
| 1777629673 | 17.22° C | 53% | 1023 hPa | 0 mm | - | 0 W/m² | - |
| 1777629073 | 16.11° C | 53% | 1023 hPa | 0 mm | - | 0 W/m² | - |
| 1777628473 | 15.56° C | 52% | 1023.2 hPa | 0 mm | - | 0 W/m² | - |
| 1777627873 | 15.56° C | 56% | 1023.2 hPa | 0 mm | - | 0 W/m² | - |
| 1777627273 | 15.56° C | 54% | 1023.3 hPa | 0 mm | - | 0 W/m² | - |
| 1777626673 | 15° C | 54% | 1023.3 hPa | 0 mm | - | 0 W/m² | - |
| 1777626073 | 14.44° C | 55% | 1023.3 hPa | 0 mm | - | 0 W/m² | - |
| 1777625473 | 14.44° C | 57% | 1023.3 hPa | 0 mm | - | 0 W/m² | - |
| 1777624873 | 13.89° C | 58% | 1023.4 hPa | 0 mm | - | 0 W/m² | - |
| 1777624273 | 13.33° C | 55% | 1023.4 hPa | 0 mm | - | 0 W/m² | - |
| 1777623673 | 13.33° C | 58% | 1023.5 hPa | 0 mm | - | 0 W/m² | - |
| 1777623072 | 12.78° C | 58% | 1023.5 hPa | 0 mm | - | 0 W/m² | - |
| 1777622472 | 12.78° C | 60% | 1023.5 hPa | 0 mm | - | 0 W/m² | - |
| 1777621872 | 11.67° C | 59% | 1023.6 hPa | 0 mm | - | 0 W/m² | - |
| 1777621272 | 11.11° C | 62% | 1023.6 hPa | 0 mm | - | 0 W/m² | - |
* Rain latest hour (hover to see other rain measurements)
** Current wind speed in m/s (hover to see current wind gust speed)